Temp
94 95 93 93 93 94 93 94 96 94 92 94 93 92 90 87 82 81 82 86 88 93 99 96 98 98 98 97 101 101 100 94 94 101 98 99 99 83 79 78 77 76 75 76 76 76 77 78 78 78 79 78 78 78 79 79 79 79 79 78 78 78 78 76 74 73 73 72 71 70 70 70 71 71
93 94 94 95 95 95 94 95 96 94 92 94 94 93 93 90 85 84 81 83 90 92 97 99 97 97 97 101 100 102 101 86 95 99 99 99 101 80 79 79 78 76 75 75 75 75 76 77 77 76 76 76 76 77 77 78 79 79 79 79 79 78 77 75 74 74 73 72 72 71 70 71 71 70
93 91 91 92 92 93 94 94 96 95 94 94 94 93 93 91 89 86 84 81 88 94 91 97 100 98 99 102 101 103 101 95 96 98 98 98 88 79 88 82 78 76 75 74 74 74 74 74 74 73 74 75 76 76 77 78 78 78 78 78 78 77 76 75 73 73 73 73 72 71 70 71 71 70
92 90 89 89 90 92 92 92 94 93 93 94 94 94 93 91 90 89 86 83 83 92 95 95 97 100 99 99 99 99 101 99 85 98 98 97 87 96 100 85 77 77 75 75 74 73 72 71 72 74 74 75 76 76 77 77 77 77 77 77 77 75 74 73 73 72 72 73 72 71 71 70 70 70
91 89 89 89 90 91 90 92 94 95 96 95 94 93 93 93 92 90 86 83 84 89 94 94 96 98 98 98 97 97 98 98 99 93 99 98 99 100 101 102 81 75 77 75 74 73 72 71 71 72 74 75 75 76 76 75 75 75 75 74 72 71 72 71 72 72 72 72 72 71 71 70 69 69
92 90 88 89 91 92 91 92 93 95 97 96 96 95 95 93 92 92 88 85 84 84 90 92 94 95 98 94 97 94 95 97 96 97 97 101 101 101 101 99 103 74 82 77 75 73 72 71 71 71 73 74 74 74 74 73 71 71 71 69 68 68 68 69 70 71 71 71 71 71 70 70 69 69
90 90 89 91 92 95 92 91 93 95 93 95 93 93 93 91 92 92 90 86 84 85 87 90 92 93 94 93 93 95 97 95 96 94 97 100 103 103 101 101 106 75 82 78 76 73 71 71 71 71 71 72 73 72 71 69 67 67 66 66 67 68 67 67 68 70 70 71 71 71 71 70 69 69
91 91 89 91 93 93 90 90 91 92 94 92 91 90 91 91 91 91 90 89 86 86 85 87 89 92 91 93 96 97 97 97 96 97 97 98 99 101 102 102 104 88 77 78 76 74 72 71 71 71 69 70 70 69 68 67 67 67 66 66 66 65 66 65 66 68 68 68 69 70 71 70 69 68
90 90 90 91 92 91 90 91 92 93 90 91 92 92 92 91 92 92 91 89 89 86 85 87 90 91 92 94 94 95 94 95 95 96 95 97 97 96 101 104 104 89 78 77 75 75 75 74 73 71 71 71 71 71 69 68 68 66 65 65 65 65 65 65 63 64 65 65 66 66 67 68 68 67
92 92 91 91 92 91 90 91 91 90 90 90 92 90 90 91 91 89 89 89 88 87 86 87 88 90 92 91 91 94 93 93 93 93 94 96 96 94 96 99 102 105 106 106 102 83 78 75 66 69 73 72 71 71 70 70 68 66 65 62 63 64 64 64 64 63 63 63 65 65 65 66 66 65
95 94 94 92 92 91 91 91 91 91 90 92 90 89 89 90 89 90 90 89 89 88 88 89 90 90 93 92 90 94 94 92 91 89 90 89 94 94 93 92 98 101 102 95 84 88 87 82 88 79 72 71 71 70 70 70 68 68 65 63 63 63 62 62 63 63 62 62 63 62 62 63 65 65
97 96 96 97 95 94 93 93 93 92 91 91 90 92 92 90 89 89 90 89 89 88 89 89 90 91 89 90 93 94 92 90 90 93 91 88 89 91 92 93 93 96 96 97 103 90 86 85 81 70 70 71 71 71 72 71 71 69 67 66 66 66 64 63 62 62 61 61 60 61 60 60 62 64
96 97 98 98 99 95 92 90 88 88 86 90 89 89 90 89 88 87 88 88 87 87 88 88 89 89 89 90 90 91 90 89 89 92 93 90 91 92 92 93 95 95 94 96 99 99 99 98 99 101 100 98 84 82 74 81 76 71 69 68 68 67 66 64 63 62 62 61 60 59 60 60 60 62
96 98 98 99 93 90 90 88 84 80 79 79 86 89 90 89 88 87 87 87 88 87 86 87 88 88 89 92 91 91 92 93 93 93 91 88 90 90 90 91 93 96 95 94 91 95 99 100 98 98 99 102 98 102 99 101 92 80 71 69 67 66 66 65 64 62 62 61 60 59 59 59 60 60
94 96 97 98 96 91 87 88 81 80 78 78 75 75 77 80 85 87 86 87 88 86 87 88 88 89 88 90 91 91 94 96 93 91 90 89 89 86 85 84 89 95 93 90 88 90 95 95 93 95 98 100 100 102 101 78 75 73 71 69 67 66 66 66 65 63 62 61 60 59 59 59 59 59
94 95 97 99 101 100 97 96 91 84 79 76 76 75 74 75 75 76 83 84 85 86 86 86 87 88 87 88 90 93 93 91 90 89 88 87 86 86 85 86 85 91 94 89 88 88 93 95 95 93 97 99 102 103 89 77 76 73 70 68 67 67 66 66 65 65 64 62 62 61 60 60 60 60
92 93 93 95 97 101 91 90 93 92 90 81 75 75 75 75 75 70 68 72 83 88 85 86 86 88 89 88 89 91 89 89 86 87 87 87 87 87 86 87 89 90 92 89 87 86 91 93 92 94 97 99 100 102 85 74 73 71 69 68 68 67 66 65 65 64 63 63 62 61 60 60 60 59
94 93 94 92 93 95 94 92 92 92 90 90 89 88 88 90 87 76 70 68 69 76 88 87 86 88 89 87 88 90 90 87 85 85 85 86 86 86 86 88 88 90 93 88 87 85 90 93 93 91 94 98 98 98 89 74 69 70 69 68 67 66 65 64 64 63 63 63 62 60 59 59 58 59
91 91 94 93 93 92 91 90 87 89 88 88 89 88 90 91 92 93 95 93 91 86 88 90 90 89 90 89 90 91 91 90 88 87 86 86 86 86 88 88 89 90 93 91 88 83 89 93 89 91 93 98 96 97 86 77 70 70 69 69 68 66 64 64 64 63 62 62 61 60 59 58 57 57
89 90 90 90 90 90 88 71 68 77 83 86 86 86 88 90 92 94 92 82 85 92 95 94 96 97 93 79 85 85 87 87 86 87 88 89 87 86 85 84 91 91 96 95 90 87 88 92 90 90 94 95 93 95 96 85 75 70 69 69 68 66 64 63 63 63 62 62 61 60 58 57 56 56
90 91 89 87 89 87 76 64 61 63 71 83 85 86 87 89 92 92 96 78 72 73 70 67 66 64 65 66 65 64 63 74 82 85 84 83 88 85 83 85 88 89 92 94 90 89 87 90 90 90 93 92 91 93 95 97 83 68 70 68 68 66 65 63 62 61 62 61 61 61 59 57 56 56
90 83 80 82 82 79 74 60 60 60 71 81 85 86 87 87 88 90 94 98 91 68 63 64 65 66 67 66 65 65 65 64 71 84 82 88 90 87 87 84 85 87 88 89 93 84 86 90 91 89 90 91 94 96 96 95 92 71 68 65 66 67 66 64 62 62 62 61 61 60 58 57 56 66
86 80 76 71 70 71 65 57 57 58 68 79 82 82 84 83 84 86 86 86 86 88 89 88 86 83 78 79 83 84 71 67 72 84 87 91 88 86 87 84 81 81 86 90 91 83 84 85 90 88 86 84 91 95 94 94 94 95 96 94 88 69 66 65 63 61 60 61 60 60 58 56 57 78
81 81 77 71 62 59 57 55 54 55 55 72 78 81 83 83 81 82 81 83 85 84 85 85 86 85 87 86 89 92 92 89 85 85 89 90 89 85 83 83 80 77 84 89 88 82 85 87 85 87 86 83 83 89 92 91 92 93 94 92 94 80 68 67 66 60 60 60 59 59 57 55 58 81
83 82 82 80 65 57 55 53 51 52 53 59 75 79 79 77 69 69 80 80 79 81 83 84 85 84 85 88 91 92 91 89 87 89 90 89 91 88 84 82 78 78 82 85 80 84 82 84 83 85 85 86 88 87 89 89 91 92 92 92 91 93 94 92 88 92 66 57 57 56 55 56 54 69
83 83 84 81 67 55 54 52 50 50 54 56 71 75 58 56 58 72 77 81 83 83 83 84 81 81 80 85 81 83 86 86 81 78 81 83 84 82 82 79 77 78 80 85 77 84 80 81 82 80 84 84 84 86 85 87 90 91 92 93 92 92 92 92 93 91 93 89 81 66 67 56 56 55
80 80 80 76 64 54 51 52 53 56 57 67 69 53 56 56 57 64 80 82 80 80 80 81 80 81 83 81 76 78 78 83 83 83 84 85 84 84 85 88 86 81 82 84 85 81 80 78 83 83 80 83 81 83 83 84 86 90 89 91 92 93 94 95 91 91 92 92 94 67 59 57 55 57
75 75 75 70 53 53 51 53 57 57 62 68 55 57 58 63 66 78 79 78 76 76 77 77 78 79 79 79 78 79 81 83 83 84 86 86 85 83 83 84 82 83 83 85 87 85 84 82 83 84 83 81 80 80 81 87 87 87 85 89 90 90 93 92 91 90 90 91 92 88 84 82 75 70
75 64 56 55 55 56 57 58 61 65 67 60 59 60 62 76 81 78 77 76 77 75 75 75 75 75 75 76 77 79 80 81 83 83 84 85 84 85 85 85 85 85 88 89 86 85 84 79 81 80 82 84 81 81 82 82 84 86 87 85 86 90 91 91 91 90 89 91 91 90 90 90 87 78
60 59 61 60 62 66 68 75 77 77 76 67 66 68 73 84 79 78 76 75 74 73 74 74 73 74 76 78 79 80 81 80 79 80 79 80 81 83 82 82 83 87 90 90 89 86 84 81 78 77 78 82 83 81 81 82 82 85 86 85 87 88 89 90 89 90 88 88 89 89 90 90 89 88
73 73 73 71 63 64 64 66 70 74 73 76 79 80 81 81 80 77 76 75 74 72 73 74 75 76 77 78 78 77 76 76 77 78 76 77 79 79 79 78 80 83 86 88 90 89 88 86 85 82 75 78 81 81 82 83 80 83 85 87 86 82 87 89 89 88 89 89 89 90 90 90 90 87
73 74 72 69 76 78 78 79 81 80 78 77 77 79 79 80 77 75 73 74 74 73 72 72 72 74 75 77 78 77 78 78 79 78 76 75 75 77 76 75 77 79 81 83 84 82 79 79 78 77 79 76 75 79 81 82 82 83 84 85 86 88 89 88 88 89 89 88 88 88 88 89 89 89
74 74 74 75 75 77 77 77 78 79 78 77 77 78 76 79 78 76 76 74 73 73 73 73 73 74 76 76 77 78 78 75 75 76 75 75 75 76 77 76 76 76 75 76 79 80 80 79 78 77 76 78 80 79 79 79 82 85 84 85 86 86 88 89 89 88 88 86 84 86 86 88 89 90
71 73 74 75 75 75 75 75 74 76 76 75 76 77 71 76 75 74 74 72 71 71 71 72 72 73 74 75 75 74 73 72 74 74 71 74 75 74 75 75 75 76 75 74 77 80 81 81 79 79 80 79 81 83 82 80 78 82 85 86 85 84 86 86 87 86 86 85 84 83 84 87 89 92
72 73 72 73 73 73 74 72 73 73 73 73 73 74 75 75 73 71 73 69 69 70 71 71 71 72 72 72 72 71 71 71 72 74 74 75 74 74 74 74 75 75 75 75 77 78 79 78 78 79 80 82 83 85 82 85 84 83 84 84 84 79 81 85 86 85 85 84 86 82 84 86 88 91
71 73 72 72 71 72 72 71 71 72 73 72 72 72 72 72 72 71 70 67 70 70 71 70 70 71 70 70 70 70 71 70 71 72 72 73 72 72 73 73 72 73 74 75 76 77 77 78 79 78 77 78 79 78 81 79 78 84 77 76 79 80 82 82 84 83 85 85 85 84 82 83 86 90
69 71 71 71 70 70 70 71 71 71 72 71 71 71 70 70 71 71 69 68 69 69 69 69 70 70 70 69 68 68 70 70 70 70 70 71 71 71 71 71 71 71 72 73 74 75 76 76 78 78 77 76 76 74 76 83 73 72 81 79 80 82 81 82 82 82 85 85 84 84 81 81 84 88
68 69 69 69 69 70 70 70 70 70 69 70 70 70 70 70 70 69 69 69 69 68 69 70 70 69 69 68 68 68 69 70 70 70 70 70 70 70 69 69 69 70 70 71 72 73 75 76 76 77 77 75 72 72 74 78 79 79 74 79 80 81 82 80 81 82 83 86 84 85 85 85 86 89
69 68 68 68 68 69 68 68 69 69 69 69 69 69 69 69 69 68 68 68 67 67 68 68 68 68 67 68 67 67 67 68 68 68 69 69 69 68 68 68 68 69 69 69 71 73 74 74 75 76 75 71 69 70 71 70 72 78 76 68 76 79 80 82 82 83 83 83 84 86 87 87 85 76
68 68 68 68 68 68 68 68 68 68 68 68 68 69 68 68 67 67 68 66 65 66 66 67 67 66 68 68 67 68 68 67 67 68 68 68 67 67 67 67 66 66 67 69 70 72 72 73 74 73 70 70 70 72 72 73 75 77 79 77 65 72 82 84 81 81 81 83 83 82 82 83 84 87
67 66 68 67 67 68 67 68 68 68 68 68 67 66 67 66 66 67 66 65 64 66 67 67 67 66 67 68 68 68 66 66 67 68 67 67 65 65 64 62 65 68 68 67 68 69 70 72 70 64 68 71 72 74 73 71 72 76 78 82 71 64 61 66 80 81 80 81 81 81 80 80 81 82
66 66 66 67 67 67 67 67 67 67 67 68 68 67 66 66 66 63 65 65 66 66 67 68 67 67 67 67 67 66 66 65 66 66 66 66 66 65 64 66 67 67 66 65 65 67 69 70 71 71 72 72 72 69 68 69 70 73 75 78 79 72 70 61 58 63 77 81 81 79 79 81 82 80
66 66 65 66 66 66 66 66 66 66 67 67 66 66 66 66 67 67 67 66 66 67 67 67 67 66 66 66 66 66 65 65 65 65 64 64 64 64 64 65 66 66 66 66 67 68 68 69 69 70 71 71 70 70 68 69 70 71 72 74 77 80 80 72 69 62 59 61 64 72 80 80 78 75
65 65 66 66 66 65 65 66 66 66 66 66 66 66 67 66 65 66 66 66 66 66 67 66 65 65 65 65 65 65 65 65 64 63 62 63 63 64 64 65 65 65 66 66 67 67 69 69 69 69 68 68 70 69 68 69 69 70 71 72 73 73 74 79 81 73 69 67 62 60 61 64 68 71
64 64 64 64 64 65 65 65 65 65 65 65 66 66 65 65 65 66 66 66 67 67 66 66 64 63 63 63 62 62 62 60 61 63 63 64 64 64 64 64 64 65 65 66 65 66 67 68 68 69 67 68 69 68 68 67 68 69 69 70 70 72 75 77 77 77 78 80 73 65 61 61 61 61
MSLP
1021.83 1021.75 1021.87 1022.11 1021.99 1021.87 1021.71 1021.71 1021.51 1021.67 1021.99 1021.87 1021.99 1022.31 1023.03 1023.67 1024.75 1024.99 1024.71 1023.67 1023.23 1021.79 1020.51 1021.23 1019.99 1019.63 1019.67 1019.55 1018.91 1018.75 1018.63 1018.63 1018.87 1018.59 1018.39 1018.39 1018.19 1018.31 1018.43 1018.47 1018.47 1018.39 1018.31 1018.19 1018.11 1017.99 1017.87 1017.75 1017.59 1017.51 1017.39 1017.27 1017.19 1017.15 1017.11 1017.11 1017.11 1017.07 1017.03 1016.99 1016.95 1016.91 1016.91 1016.95 1016.99 1017.03 1017.07 1017.07 1017.07 1017.07 1017.03 1016.95 1016.87 1016.79
1021.79 1021.79 1021.79 1021.71 1021.87 1021.55 1021.63 1021.55 1021.39 1021.55 1021.79 1021.83 1021.87 1021.91 1022.07 1022.55 1023.87 1024.23 1024.99 1024.47 1022.59 1022.07 1020.83 1020.35 1020.43 1019.67 1019.71 1019.11 1018.83 1018.47 1018.43 1018.51 1018.67 1018.59 1018.39 1018.23 1017.99 1018.27 1018.31 1018.19 1018.19 1018.15 1018.07 1018.03 1017.99 1017.87 1017.75 1017.63 1017.51 1017.39 1017.27 1017.15 1017.03 1016.91 1016.83 1016.79 1016.83 1016.79 1016.79 1016.75 1016.71 1016.67 1016.67 1016.71 1016.75 1016.79 1016.87 1016.91 1016.95 1016.95 1016.91 1016.87 1016.79 1016.79
1021.75 1022.07 1022.23 1021.99 1022.03 1021.83 1021.75 1021.63 1021.39 1021.27 1021.51 1021.63 1021.59 1021.71 1021.83 1022.19 1022.59 1023.31 1023.79 1024.71 1022.67 1021.55 1022.07 1020.75 1019.83 1019.99 1019.51 1019.11 1018.99 1018.59 1018.47 1018.39 1018.51 1018.51 1018.39 1018.15 1018.11 1018.19 1017.91 1017.75 1017.83 1017.87 1017.83 1017.83 1017.79 1017.75 1017.67 1017.55 1017.39 1017.27 1017.11 1016.99 1016.83 1016.71 1016.55 1016.51 1016.51 1016.55 1016.51 1016.47 1016.43 1016.43 1016.43 1016.47 1016.51 1016.59 1016.63 1016.71 1016.75 1016.79 1016.79 1016.79 1016.79 1016.75
1021.79 1022.11 1022.31 1022.23 1022.19 1021.91 1021.87 1021.83 1021.63 1021.59 1021.51 1021.51 1021.59 1021.51 1021.71 1021.99 1022.03 1022.43 1023.27 1023.95 1023.79 1021.71 1021.35 1020.83 1020.27 1019.59 1019.51 1019.23 1019.39 1019.19 1018.79 1018.19 1018.43 1018.35 1018.31 1018.03 1018.03 1017.67 1017.19 1017.15 1017.51 1017.59 1017.63 1017.63 1017.59 1017.59 1017.47 1017.39 1017.23 1017.07 1016.95 1016.79 1016.63 1016.51 1016.35 1016.27 1016.27 1016.27 1016.23 1016.19 1016.19 1016.19 1016.19 1016.23 1016.27 1016.35 1016.43 1016.47 1016.55 1016.55 1016.63 1016.67 1016.71 1016.71
1021.87 1022.11 1022.27 1022.19 1021.99 1021.79 1022.07 1021.87 1021.55 1021.35 1021.23 1021.19 1021.35 1021.43 1021.63 1021.83 1021.63 1022.03 1022.87 1023.59 1023.35 1021.99 1020.79 1020.83 1020.51 1019.75 1019.67 1019.75 1019.39 1019.51 1019.11 1018.83 1018.39 1018.23 1017.99 1017.87 1017.75 1017.39 1017.11 1016.95 1017.07 1017.31 1017.39 1017.43 1017.43 1017.39 1017.31 1017.19 1017.07 1016.95 1016.75 1016.59 1016.43 1016.31 1016.19 1016.11 1016.03 1016.03 1016.03 1016.03 1015.99 1015.99 1015.95 1015.99 1016.03 1016.07 1016.19 1016.27 1016.31 1016.35 1016.43 1016.51 1016.55 1016.59
1021.79 1021.91 1022.23 1022.11 1021.83 1021.59 1021.83 1021.75 1021.67 1021.27 1021.07 1021.07 1021.19 1021.19 1021.35 1021.67 1021.71 1021.47 1022.43 1022.95 1023.15 1023.11 1021.47 1021.19 1020.31 1020.15 1019.55 1020.27 1019.31 1019.75 1019.71 1019.23 1018.79 1018.63 1018.31 1017.67 1017.31 1017.19 1017.03 1016.99 1016.67 1017.07 1017.07 1017.23 1017.23 1017.15 1017.11 1017.03 1016.91 1016.83 1016.67 1016.47 1016.31 1016.15 1016.03 1015.95 1015.91 1015.87 1015.91 1015.87 1015.87 1015.83 1015.79 1015.75 1015.75 1015.79 1015.87 1015.95 1016.03 1016.11 1016.19 1016.27 1016.35 1016.43
1021.71 1021.91 1021.99 1021.87 1021.59 1021.27 1021.59 1021.67 1021.51 1021.15 1021.35 1021.19 1021.39 1021.51 1021.31 1021.63 1021.59 1021.39 1021.59 1022.43 1023.03 1022.83 1022.31 1021.19 1020.95 1020.39 1020.07 1020.27 1019.99 1019.43 1019.11 1018.95 1018.67 1018.83 1018.35 1017.95 1017.47 1017.07 1017.03 1016.95 1016.47 1016.79 1016.79 1016.99 1016.99 1016.95 1016.91 1016.83 1016.75 1016.63 1016.51 1016.31 1016.15 1016.03 1015.91 1015.79 1015.67 1015.63 1015.67 1015.71 1015.67 1015.63 1015.59 1015.55 1015.51 1015.47 1015.55 1015.63 1015.75 1015.83 1015.91 1016.03 1016.11 1016.23
1021.63 1021.71 1021.83 1021.63 1021.35 1021.31 1021.71 1021.75 1021.63 1021.35 1021.23 1021.35 1021.51 1021.63 1021.47 1021.43 1021.51 1021.35 1021.39 1021.59 1022.23 1022.27 1022.55 1021.59 1021.31 1020.55 1020.55 1020.11 1019.43 1019.07 1018.83 1018.83 1018.79 1018.59 1018.23 1017.79 1017.63 1017.35 1017.03 1016.79 1016.43 1016.39 1016.59 1016.63 1016.67 1016.63 1016.59 1016.55 1016.47 1016.39 1016.27 1016.11 1015.99 1015.87 1015.75 1015.59 1015.47 1015.39 1015.39 1015.43 1015.43 1015.39 1015.35 1015.31 1015.27 1015.27 1015.27 1015.35 1015.47 1015.55 1015.63 1015.75 1015.87 1015.99
1021.47 1021.55 1021.59 1021.47 1021.31 1021.35 1021.67 1021.55 1021.43 1021.19 1021.47 1021.31 1021.27 1021.31 1021.15 1021.27 1021.11 1021.07 1021.19 1021.35 1021.43 1021.95 1022.23 1021.75 1020.87 1020.39 1020.19 1019.71 1019.47 1019.11 1019.43 1019.11 1018.75 1018.35 1018.39 1018.15 1017.79 1017.63 1017.11 1016.63 1016.19 1016.11 1016.11 1016.23 1016.27 1016.27 1016.23 1016.15 1016.11 1016.07 1015.95 1015.83 1015.71 1015.59 1015.47 1015.35 1015.27 1015.19 1015.15 1015.19 1015.23 1015.15 1015.11 1015.07 1015.07 1015.07 1015.07 1015.11 1015.23 1015.35 1015.43 1015.51 1015.63 1015.75
1021.03 1021.15 1021.27 1021.27 1021.19 1021.27 1021.55 1021.51 1021.31 1021.27 1021.43 1021.31 1021.23 1021.31 1021.31 1021.11 1021.07 1021.27 1021.19 1021.19 1021.35 1021.55 1021.63 1021.55 1021.31 1020.43 1020.39 1020.11 1019.87 1019.27 1019.19 1019.43 1019.43 1019.03 1018.47 1017.99 1017.75 1017.87 1017.75 1017.19 1016.63 1016.07 1015.87 1015.91 1015.91 1015.83 1015.79 1015.67 1015.79 1015.67 1015.59 1015.51 1015.39 1015.31 1015.15 1015.07 1015.03 1014.99 1014.91 1014.91 1014.95 1014.95 1014.91 1014.91 1014.87 1014.87 1014.87 1014.91 1014.99 1015.07 1015.19 1015.31 1015.39 1015.51
1020.51 1020.63 1020.71 1020.87 1020.91 1021.07 1021.11 1021.19 1021.23 1021.19 1021.19 1021.11 1021.19 1021.19 1021.23 1020.99 1021.15 1021.15 1021.03 1020.99 1021.15 1021.23 1021.31 1020.95 1020.63 1020.55 1019.87 1019.87 1020.27 1019.23 1018.83 1019.11 1019.27 1019.63 1019.55 1019.35 1018.23 1017.91 1017.99 1017.99 1017.03 1016.35 1016.15 1015.87 1015.75 1015.59 1015.51 1015.43 1015.23 1015.11 1015.15 1015.07 1014.99 1014.95 1014.87 1014.75 1014.71 1014.63 1014.59 1014.55 1014.59 1014.63 1014.67 1014.67 1014.67 1014.67 1014.67 1014.67 1014.75 1014.83 1014.95 1015.07 1015.15 1015.27
1020.15 1020.15 1020.23 1020.19 1020.23 1020.43 1020.51 1020.63 1020.67 1020.67 1020.95 1020.79 1020.99 1020.67 1020.71 1020.87 1021.11 1021.19 1020.99 1021.03 1021.07 1021.19 1021.03 1020.99 1020.79 1020.39 1020.47 1020.03 1019.43 1019.03 1019.07 1019.59 1019.43 1018.95 1019.23 1019.83 1019.31 1018.67 1017.91 1017.63 1017.63 1016.91 1016.63 1016.39 1015.59 1015.23 1015.19 1015.03 1014.87 1014.79 1014.75 1014.59 1014.55 1014.47 1014.43 1014.35 1014.27 1014.27 1014.23 1014.23 1014.23 1014.27 1014.31 1014.35 1014.39 1014.43 1014.47 1014.51 1014.55 1014.59 1014.67 1014.79 1014.91 1014.99
1020.03 1019.87 1019.71 1019.67 1019.63 1019.79 1020.15 1020.35 1020.51 1020.51 1020.67 1020.91 1021.11 1020.87 1020.71 1020.91 1021.07 1021.15 1021.11 1021.07 1021.15 1021.19 1021.07 1021.03 1020.55 1020.55 1020.47 1020.15 1019.99 1019.83 1019.87 1019.99 1019.79 1018.87 1018.67 1019.11 1018.67 1018.23 1018.11 1017.55 1016.91 1016.79 1016.79 1016.35 1015.95 1015.83 1015.51 1015.31 1014.91 1014.55 1014.43 1013.99 1013.91 1013.83 1013.79 1013.59 1013.67 1013.91 1013.91 1013.91 1013.87 1013.87 1013.91 1013.99 1014.03 1014.11 1014.15 1014.27 1014.35 1014.39 1014.43 1014.51 1014.63 1014.75
1019.91 1019.67 1019.55 1019.39 1019.67 1020.03 1020.19 1020.35 1020.47 1020.59 1020.67 1020.79 1020.71 1020.67 1020.67 1020.79 1020.95 1021.11 1021.19 1021.15 1021.03 1021.11 1021.35 1021.11 1020.79 1020.87 1020.63 1019.99 1019.71 1019.87 1019.39 1018.79 1018.35 1018.59 1018.79 1019.35 1018.75 1018.43 1018.43 1017.87 1017.15 1016.39 1016.51 1016.67 1016.71 1016.07 1015.15 1015.07 1014.87 1014.55 1014.43 1013.63 1013.39 1013.15 1013.03 1012.87 1012.99 1013.43 1013.59 1013.63 1013.63 1013.59 1013.55 1013.59 1013.63 1013.71 1013.79 1013.87 1013.99 1014.11 1014.19 1014.27 1014.31 1014.43
1020.07 1019.63 1019.31 1019.19 1019.31 1019.75 1019.95 1020.07 1020.23 1020.35 1020.51 1020.59 1020.67 1020.75 1020.75 1020.75 1020.95 1021.07 1021.15 1021.03 1020.83 1021.03 1020.99 1020.59 1020.51 1020.39 1020.43 1020.03 1019.47 1019.43 1018.91 1018.39 1018.67 1018.91 1018.87 1018.99 1018.91 1019.23 1019.43 1019.51 1017.71 1016.19 1016.35 1016.79 1016.87 1016.31 1015.15 1014.95 1015.27 1014.63 1014.19 1013.59 1013.23 1012.87 1012.67 1012.83 1013.03 1013.15 1013.27 1013.31 1013.31 1013.31 1013.31 1013.27 1013.27 1013.31 1013.39 1013.47 1013.59 1013.75 1013.91 1013.99 1014.03 1014.11
1019.71 1019.59 1019.39 1019.07 1018.75 1018.83 1019.11 1019.27 1019.67 1020.03 1020.11 1020.23 1020.31 1020.39 1020.47 1020.55 1020.59 1020.63 1020.91 1021.11 1021.07 1020.87 1020.87 1020.79 1020.47 1020.35 1020.31 1019.95 1019.51 1019.19 1018.87 1018.99 1018.87 1018.83 1018.87 1018.99 1019.11 1019.11 1019.11 1018.79 1018.79 1016.75 1015.91 1016.71 1016.95 1016.51 1015.15 1014.59 1014.75 1014.67 1014.03 1013.35 1012.83 1012.39 1012.47 1012.63 1012.71 1012.83 1013.03 1013.07 1013.03 1013.03 1013.03 1013.03 1012.99 1012.99 1012.99 1013.07 1013.19 1013.31 1013.47 1013.59 1013.67 1013.75
1019.71 1019.67 1019.71 1019.51 1019.15 1018.75 1019.19 1019.47 1019.39 1019.47 1019.67 1019.87 1019.99 1019.99 1020.03 1020.07 1020.07 1020.19 1020.31 1020.31 1020.35 1020.11 1020.47 1020.55 1020.35 1020.07 1019.79 1019.87 1019.51 1018.99 1019.03 1018.79 1019.39 1018.99 1018.99 1018.75 1018.63 1018.51 1018.71 1018.31 1017.63 1016.67 1015.83 1016.47 1016.83 1016.71 1015.43 1014.83 1014.79 1014.51 1013.55 1012.95 1012.51 1012.23 1012.11 1012.35 1012.51 1012.67 1012.79 1012.83 1012.83 1012.79 1012.75 1012.71 1012.75 1012.71 1012.71 1012.71 1012.79 1012.91 1013.03 1013.19 1013.27 1013.35
1019.35 1019.43 1019.47 1019.59 1019.59 1019.11 1019.11 1019.27 1019.39 1019.47 1019.59 1019.59 1019.67 1019.71 1019.59 1019.39 1019.27 1019.47 1019.63 1019.75 1019.87 1019.87 1019.71 1019.75 1020.03 1019.31 1019.07 1019.47 1019.03 1018.55 1018.43 1018.99 1019.23 1019.07 1018.99 1018.51 1018.55 1018.51 1018.31 1017.47 1017.07 1016.19 1015.67 1016.63 1016.63 1016.67 1015.59 1014.59 1014.55 1014.59 1013.63 1012.79 1012.47 1012.07 1011.79 1012.03 1012.23 1012.35 1012.43 1012.51 1012.59 1012.67 1012.59 1012.51 1012.51 1012.47 1012.43 1012.43 1012.43 1012.51 1012.63 1012.75 1012.91 1012.99
1019.47 1019.43 1019.31 1019.35 1019.39 1019.31 1019.39 1019.43 1019.63 1019.67 1019.79 1019.83 1019.79 1019.71 1019.51 1019.19 1018.87 1018.63 1018.59 1018.71 1018.87 1019.23 1019.15 1018.99 1018.87 1018.71 1018.43 1018.39 1018.19 1017.95 1017.83 1018.07 1018.19 1018.23 1018.39 1018.19 1018.07 1017.71 1017.07 1016.83 1016.51 1016.11 1015.27 1015.39 1016.07 1017.19 1015.47 1014.43 1014.83 1014.39 1013.59 1012.87 1012.43 1011.91 1011.71 1011.79 1011.91 1011.99 1012.07 1012.15 1012.27 1012.39 1012.43 1012.39 1012.35 1012.35 1012.27 1012.19 1012.19 1012.19 1012.27 1012.35 1012.47 1012.59
1019.39 1019.35 1019.39 1019.47 1019.47 1019.51 1019.67 1020.51 1020.43 1020.31 1020.07 1020.03 1020.03 1019.91 1019.55 1019.19 1018.71 1018.39 1017.91 1017.87 1017.91 1017.91 1017.87 1017.87 1017.83 1017.63 1017.63 1017.91 1017.99 1017.95 1017.95 1017.95 1017.83 1017.71 1017.51 1017.31 1017.47 1017.67 1017.79 1017.71 1016.59 1016.27 1014.79 1014.59 1015.47 1016.07 1015.51 1014.35 1014.79 1014.35 1013.35 1012.91 1012.83 1012.07 1011.75 1011.47 1011.67 1011.71 1011.79 1011.91 1011.99 1012.11 1012.19 1012.23 1012.23 1012.19 1012.15 1012.11 1012.03 1011.99 1012.03 1012.07 1012.15 1012.27
1019.27 1019.19 1019.43 1019.71 1019.55 1019.71 1020.83 1021.23 1021.07 1021.07 1020.75 1020.19 1019.95 1019.79 1019.63 1019.19 1018.83 1018.51 1017.71 1017.51 1017.63 1017.75 1017.95 1018.11 1018.15 1018.11 1018.03 1017.95 1017.87 1017.83 1017.83 1017.91 1017.75 1017.91 1018.23 1018.27 1017.47 1017.71 1017.95 1017.31 1016.75 1016.27 1015.23 1014.83 1015.23 1015.59 1015.59 1014.55 1014.47 1014.43 1013.55 1013.23 1012.99 1012.47 1011.83 1011.27 1011.11 1011.43 1011.55 1011.63 1011.67 1011.75 1011.87 1011.95 1011.99 1011.95 1011.91 1011.87 1011.87 1011.83 1011.83 1011.83 1011.91 1012.07
1019.27 1019.87 1020.15 1020.11 1020.31 1020.67 1021.23 1021.35 1021.27 1021.31 1021.03 1020.47 1019.83 1019.55 1019.43 1019.51 1019.23 1018.75 1017.87 1017.47 1017.63 1017.87 1017.99 1017.95 1017.91 1017.83 1017.79 1017.67 1017.59 1017.51 1017.47 1017.51 1017.71 1017.91 1018.35 1017.23 1016.83 1017.15 1017.07 1017.43 1016.83 1016.11 1015.55 1015.19 1014.51 1015.87 1015.75 1014.55 1014.11 1014.47 1013.59 1013.07 1012.55 1012.03 1011.47 1011.15 1011.07 1011.19 1011.27 1011.27 1011.31 1011.39 1011.47 1011.51 1011.63 1011.71 1011.67 1011.55 1011.47 1011.51 1011.63 1011.79 1011.99 1011.99
1019.79 1020.39 1020.79 1021.03 1021.15 1021.27 1021.43 1021.43 1021.51 1021.47 1021.27 1020.75 1020.19 1019.95 1019.75 1019.79 1019.71 1019.19 1018.91 1018.83 1018.75 1018.51 1018.27 1018.03 1017.87 1017.75 1017.47 1017.31 1017.11 1016.87 1016.75 1016.79 1017.03 1016.95 1016.83 1016.35 1016.75 1017.07 1016.75 1016.91 1017.15 1017.23 1016.15 1014.87 1014.11 1015.95 1015.43 1015.27 1014.31 1014.39 1014.71 1014.67 1012.87 1011.95 1011.67 1011.51 1011.31 1011.03 1010.83 1010.75 1010.79 1010.91 1011.07 1011.15 1011.19 1011.27 1011.35 1011.39 1011.35 1011.31 1011.31 1011.51 1011.83 1011.39
1020.59 1020.47 1020.87 1021.23 1021.55 1021.63 1021.67 1021.67 1021.63 1021.55 1021.47 1021.23 1020.71 1020.23 1019.95 1019.79 1019.79 1019.43 1019.47 1018.99 1018.87 1018.79 1018.63 1018.35 1017.99 1017.91 1017.43 1017.23 1016.67 1016.19 1016.03 1015.99 1016.11 1016.27 1016.03 1015.95 1016.15 1016.59 1016.71 1016.99 1017.39 1017.91 1016.43 1014.55 1014.27 1015.75 1015.15 1014.67 1014.91 1014.23 1014.67 1015.23 1014.75 1012.71 1011.99 1011.79 1011.31 1011.11 1010.91 1010.87 1010.75 1010.43 1010.59 1010.75 1010.87 1010.83 1010.83 1010.95 1011.07 1011.19 1011.23 1011.23 1011.27 1010.91
1020.39 1020.47 1020.51 1020.75 1021.47 1021.55 1021.59 1021.59 1021.67 1021.59 1021.51 1021.39 1020.87 1020.39 1020.39 1020.43 1020.59 1020.31 1019.63 1019.23 1019.07 1018.87 1018.47 1018.19 1017.95 1017.95 1017.55 1016.91 1016.43 1016.11 1015.87 1015.99 1016.03 1015.87 1015.59 1015.55 1015.47 1015.75 1016.15 1016.67 1017.11 1016.75 1015.59 1014.79 1014.27 1014.95 1015.63 1014.91 1015.03 1014.47 1014.27 1014.11 1013.87 1013.43 1012.31 1012.03 1011.51 1011.23 1010.87 1010.79 1010.79 1010.31 1010.15 1010.15 1009.99 1009.87 1010.15 1010.43 1010.59 1010.75 1010.99 1011.19 1011.19 1010.71
1020.79 1020.91 1020.59 1020.99 1021.79 1021.79 1021.67 1021.59 1021.59 1021.51 1021.39 1021.31 1020.95 1020.67 1020.91 1020.71 1020.51 1020.15 1019.71 1019.27 1018.83 1018.55 1018.39 1018.15 1018.15 1018.19 1018.03 1017.63 1017.83 1017.39 1016.75 1016.59 1016.59 1016.91 1016.43 1016.03 1015.87 1015.83 1015.95 1016.15 1016.67 1016.55 1015.83 1014.51 1014.31 1014.71 1015.35 1015.27 1014.95 1015.19 1014.39 1014.43 1013.87 1013.39 1013.31 1012.59 1011.79 1011.23 1010.67 1010.47 1010.47 1010.31 1010.19 1010.15 1009.99 1009.83 1009.55 1009.67 1010.03 1010.35 1010.39 1010.67 1010.87 1010.83
1021.47 1021.43 1021.35 1021.67 1021.91 1021.79 1021.55 1021.55 1021.55 1021.39 1021.11 1020.91 1021.07 1021.07 1020.79 1020.55 1020.31 1020.19 1019.43 1018.99 1018.99 1018.91 1018.71 1018.63 1018.51 1018.15 1017.83 1017.95 1018.23 1017.95 1017.75 1017.03 1016.63 1016.47 1016.15 1015.91 1015.83 1015.63 1015.15 1014.67 1014.95 1015.47 1015.03 1014.47 1014.03 1014.43 1015.03 1015.15 1014.27 1014.55 1014.67 1014.03 1014.19 1013.63 1013.43 1013.31 1012.35 1011.27 1011.23 1010.87 1010.47 1010.07 1009.75 1009.71 1009.99 1009.87 1009.47 1009.31 1009.11 1009.35 1009.83 1010.19 1010.39 1010.47
1022.11 1022.03 1021.95 1021.99 1022.03 1021.67 1021.51 1021.43 1021.51 1021.27 1021.23 1021.15 1021.11 1020.75 1020.43 1020.07 1019.99 1019.67 1019.39 1019.51 1019.59 1019.43 1019.23 1019.11 1018.95 1018.71 1018.35 1018.11 1018.07 1017.83 1017.35 1016.95 1016.51 1016.31 1015.91 1015.71 1015.59 1015.55 1015.31 1014.95 1014.83 1014.75 1014.63 1014.19 1013.71 1013.63 1013.79 1014.27 1014.03 1013.71 1013.67 1013.95 1014.15 1014.03 1013.75 1012.35 1012.07 1011.83 1011.91 1010.95 1010.67 1010.31 1009.87 1009.79 1009.87 1009.71 1009.39 1009.07 1008.99 1009.15 1009.51 1009.71 1009.79 1010.15
1022.31 1022.55 1022.43 1022.19 1021.79 1021.63 1021.43 1021.31 1021.15 1020.91 1021.03 1021.11 1020.95 1020.67 1020.31 1019.79 1019.63 1019.91 1019.99 1019.99 1019.83 1019.91 1019.99 1019.83 1019.59 1019.39 1019.19 1018.91 1018.51 1017.99 1017.55 1017.11 1016.67 1016.47 1016.19 1015.83 1015.59 1015.27 1014.99 1014.71 1014.47 1014.23 1013.87 1013.51 1013.47 1013.39 1013.59 1014.11 1014.07 1013.91 1013.67 1013.23 1013.63 1013.31 1013.07 1012.91 1012.31 1011.91 1011.51 1011.63 1011.47 1010.47 1010.03 1009.79 1009.67 1009.63 1009.43 1009.11 1009.03 1008.87 1008.87 1008.71 1008.79 1009.07
1022.55 1022.35 1022.11 1021.87 1021.63 1021.39 1021.35 1021.07 1021.03 1020.99 1021.07 1020.95 1020.75 1020.47 1020.11 1019.51 1019.91 1020.11 1020.19 1020.19 1020.27 1020.43 1020.23 1020.11 1020.03 1019.71 1019.15 1018.75 1018.31 1017.91 1017.59 1017.55 1017.51 1017.15 1016.95 1016.59 1016.15 1015.71 1015.47 1015.31 1014.83 1014.15 1013.55 1013.15 1013.03 1013.11 1013.27 1013.59 1013.99 1014.19 1014.03 1013.27 1013.03 1012.99 1012.67 1012.63 1012.23 1011.59 1011.27 1011.39 1010.91 1010.19 1009.83 1009.67 1009.63 1009.43 1009.35 1009.27 1008.91 1008.71 1008.31 1008.19 1008.15 1008.27
1022.27 1022.11 1021.95 1021.79 1021.75 1021.55 1021.43 1021.35 1021.15 1020.99 1020.79 1020.59 1020.31 1020.07 1019.91 1019.75 1019.91 1020.19 1020.31 1020.39 1020.43 1020.51 1020.39 1020.19 1019.95 1019.55 1019.19 1018.75 1018.55 1018.47 1018.35 1018.19 1017.83 1017.51 1017.47 1017.23 1016.91 1016.51 1016.23 1016.07 1015.51 1014.71 1013.91 1013.23 1012.91 1012.87 1012.87 1012.95 1012.83 1013.23 1014.27 1013.75 1012.99 1012.75 1012.35 1012.11 1012.23 1011.75 1011.19 1010.75 1010.75 1011.55 1010.15 1009.55 1009.31 1009.23 1009.03 1008.87 1008.63 1008.35 1008.07 1007.87 1007.79 1007.63
1022.39 1022.11 1021.87 1021.71 1021.43 1021.19 1020.99 1020.79 1020.63 1020.67 1020.71 1020.67 1020.51 1020.43 1020.31 1020.07 1020.35 1020.51 1020.47 1020.35 1020.35 1020.43 1020.47 1020.31 1020.11 1019.79 1019.39 1019.07 1018.87 1018.71 1018.39 1018.15 1017.95 1017.71 1017.75 1017.75 1017.43 1016.99 1016.71 1016.63 1016.23 1015.55 1014.87 1014.07 1013.55 1013.47 1013.47 1013.43 1013.47 1013.39 1013.35 1013.71 1013.91 1012.83 1012.15 1011.91 1011.83 1011.43 1011.11 1010.55 1010.27 1009.87 1009.47 1009.59 1009.27 1008.87 1008.55 1008.51 1008.63 1008.47 1008.19 1007.91 1007.79 1007.47
1022.23 1022.07 1021.87 1021.79 1021.71 1021.43 1021.31 1021.11 1021.03 1020.87 1020.83 1020.87 1020.75 1020.75 1020.83 1020.39 1020.43 1020.55 1020.55 1020.79 1020.79 1020.63 1020.43 1020.31 1020.19 1019.91 1019.51 1019.27 1018.95 1018.71 1018.59 1018.59 1018.51 1018.11 1018.03 1017.75 1017.55 1017.11 1016.87 1016.83 1016.39 1016.07 1015.75 1015.11 1014.47 1013.91 1013.51 1013.19 1012.95 1013.19 1013.35 1013.23 1012.79 1012.55 1012.55 1012.43 1011.43 1010.79 1010.79 1010.39 1010.11 1009.91 1009.51 1009.07 1008.99 1008.83 1008.47 1008.79 1008.95 1008.59 1008.23 1007.67 1007.27 1007.03
1022.55 1022.31 1022.11 1021.87 1021.87 1021.83 1021.71 1021.71 1021.59 1021.43 1021.23 1021.23 1021.07 1020.91 1021.15 1020.83 1020.95 1021.11 1020.91 1021.19 1021.23 1021.03 1020.83 1020.63 1020.39 1020.15 1019.87 1019.59 1019.31 1019.31 1019.35 1019.15 1018.87 1018.47 1018.35 1018.07 1017.71 1017.63 1017.27 1016.99 1016.51 1016.03 1015.87 1015.59 1014.99 1014.39 1013.83 1013.47 1013.15 1012.79 1012.55 1012.47 1012.03 1011.59 1011.55 1011.95 1011.83 1010.95 1010.35 1010.11 1010.03 1010.07 1009.47 1009.23 1008.95 1008.79 1008.67 1008.79 1008.83 1008.79 1008.39 1007.79 1006.99 1006.47
1022.43 1022.39 1022.31 1022.23 1022.15 1022.11 1021.95 1022.03 1021.99 1021.91 1021.71 1021.75 1021.63 1021.43 1021.23 1021.15 1021.35 1021.39 1021.27 1021.63 1021.51 1021.19 1020.95 1020.83 1020.63 1020.35 1020.19 1020.03 1019.83 1019.79 1019.63 1019.47 1019.15 1018.63 1018.27 1018.11 1017.91 1017.75 1017.47 1017.19 1016.71 1016.35 1016.11 1015.67 1015.15 1014.59 1014.31 1014.07 1013.67 1013.27 1012.75 1012.27 1011.87 1010.91 1010.23 1010.39 1010.99 1010.63 1010.31 1010.15 1010.03 1010.27 1009.83 1009.19 1008.95 1008.79 1008.79 1008.63 1008.35 1008.71 1008.27 1007.63 1007.11 1006.23
1022.67 1022.43 1022.51 1022.47 1022.51 1022.39 1022.27 1022.27 1022.19 1022.11 1021.99 1021.99 1021.95 1021.87 1021.79 1021.67 1021.59 1021.67 1021.71 1021.95 1021.63 1021.31 1021.15 1021.11 1020.87 1020.63 1020.51 1020.39 1020.27 1020.03 1019.75 1019.63 1019.27 1018.95 1018.75 1018.47 1018.27 1018.07 1017.71 1017.47 1017.19 1016.79 1016.39 1015.95 1015.43 1014.95 1014.71 1014.39 1013.95 1013.83 1013.67 1013.11 1012.87 1012.51 1011.63 1009.99 1010.07 1010.63 1011.51 1011.35 1010.63 1010.31 1009.83 1009.47 1008.99 1008.91 1008.71 1008.51 1008.15 1008.31 1008.43 1007.95 1007.03 1006.15
1022.99 1022.79 1022.71 1022.71 1022.71 1022.67 1022.67 1022.55 1022.47 1022.39 1022.27 1022.27 1022.19 1022.11 1022.11 1021.99 1021.83 1021.87 1021.99 1021.95 1021.67 1021.51 1021.47 1021.31 1020.91 1020.83 1020.67 1020.63 1020.47 1020.15 1019.87 1019.71 1019.55 1019.35 1019.07 1018.67 1018.47 1018.23 1018.03 1017.67 1017.43 1017.11 1016.67 1016.19 1015.83 1015.47 1014.99 1014.67 1014.15 1013.99 1013.87 1013.55 1013.47 1013.43 1012.47 1010.95 1010.55 1010.35 1010.87 1011.11 1010.59 1010.11 1009.95 1009.55 1009.27 1009.03 1008.43 1008.19 1008.07 1007.95 1008.03 1007.79 1006.99 1006.03
1023.31 1023.19 1023.11 1023.07 1023.07 1022.95 1022.91 1022.79 1022.79 1022.63 1022.63 1022.47 1022.39 1022.23 1022.07 1022.03 1021.95 1022.07 1021.95 1021.75 1021.75 1021.67 1021.51 1021.23 1020.99 1020.91 1020.87 1020.79 1020.63 1020.39 1020.11 1019.79 1019.63 1019.39 1019.15 1018.87 1018.63 1018.47 1018.27 1018.07 1017.63 1017.23 1016.95 1016.51 1016.15 1015.71 1015.15 1014.79 1014.47 1014.11 1013.95 1014.11 1014.11 1013.67 1012.95 1011.67 1011.35 1010.67 1010.23 1010.59 1010.75 1010.15 1009.75 1009.71 1009.51 1009.11 1008.47 1007.75 1007.75 1007.31 1007.11 1007.15 1006.43 1005.63
1023.43 1023.47 1023.39 1023.31 1023.27 1023.19 1023.15 1023.07 1022.99 1022.87 1022.75 1022.63 1022.47 1022.39 1022.31 1022.19 1022.11 1022.11 1021.99 1021.95 1022.03 1021.99 1021.71 1021.47 1021.23 1021.19 1021.15 1020.91 1020.79 1020.63 1020.31 1020.07 1019.87 1019.59 1019.31 1019.07 1018.91 1018.75 1018.55 1018.23 1017.91 1017.43 1017.19 1016.75 1016.15 1015.67 1015.23 1015.03 1014.71 1014.43 1014.47 1014.83 1014.87 1014.39 1013.83 1013.35 1012.27 1010.99 1010.19 1010.11 1010.23 1010.15 1009.71 1009.47 1009.19 1008.67 1008.43 1008.07 1007.43 1006.79 1006.39 1005.71 1005.19 1004.87
1023.67 1023.59 1023.55 1023.59 1023.47 1023.43 1023.35 1023.23 1023.11 1023.03 1022.91 1022.79 1022.67 1022.59 1022.51 1022.35 1022.35 1022.27 1022.11 1022.19 1022.23 1022.15 1021.95 1021.63 1021.43 1021.31 1021.03 1020.87 1020.83 1020.59 1020.39 1020.27 1020.07 1019.71 1019.51 1019.27 1019.07 1018.99 1018.71 1018.47 1018.27 1017.83 1017.27 1016.67 1016.19 1015.75 1015.59 1015.31 1014.95 1015.03 1015.27 1015.15 1014.79 1014.23 1013.67 1012.99 1011.95 1010.87 1010.11 1009.35 1009.03 1009.23 1009.11 1008.91 1008.91 1008.67 1008.39 1007.83 1007.47 1007.51 1007.15 1006.43 1006.31 1005.31
1023.91 1023.91 1023.79 1023.79 1023.71 1023.59 1023.55 1023.43 1023.27 1023.15 1023.07 1022.95 1022.83 1022.71 1022.67 1022.63 1022.51 1022.27 1022.43 1022.55 1022.35 1022.03 1021.75 1021.59 1021.47 1021.39 1021.15 1020.95 1020.79 1020.67 1020.51 1020.31 1020.03 1019.79 1019.63 1019.43 1019.27 1019.07 1018.91 1018.71 1018.19 1017.55 1017.23 1016.87 1016.51 1016.15 1015.75 1015.43 1015.35 1015.39 1015.23 1014.63 1014.03 1013.47 1013.15 1012.79 1012.15 1011.07 1010.23 1009.35 1008.75 1008.75 1008.75 1008.63 1008.55 1008.47 1008.27 1007.63 1007.55 1007.51 1007.35 1007.07 1006.59 1006.03
1024.19 1024.11 1024.07 1023.95 1023.95 1023.87 1023.75 1023.67 1023.59 1023.43 1023.27 1023.11 1022.95 1022.83 1022.83 1022.75 1022.51 1022.63 1022.51 1022.23 1022.03 1021.91 1021.75 1021.55 1021.51 1021.43 1021.27 1021.11 1020.91 1020.79 1020.67 1020.47 1020.15 1019.87 1019.71 1019.55 1019.27 1018.99 1018.71 1018.35 1017.91 1017.55 1017.51 1017.27 1016.91 1016.47 1015.95 1015.59 1015.31 1015.07 1014.71 1014.35 1014.07 1013.99 1013.59 1012.99 1012.31 1011.39 1010.67 1009.87 1009.15 1008.51 1008.15 1008.03 1008.03 1007.91 1007.71 1007.59 1007.59 1007.55 1007.15 1006.55 1006.19 1006.23
1024.23 1024.27 1024.23 1024.11 1024.07 1023.99 1023.91 1023.79 1023.67 1023.55 1023.43 1023.31 1023.23 1023.15 1023.07 1022.83 1022.59 1022.47 1022.31 1022.23 1022.15 1021.95 1021.75 1021.67 1021.67 1021.59 1021.43 1021.23 1021.07 1020.99 1020.83 1020.55 1020.35 1020.15 1019.95 1019.75 1019.47 1019.15 1018.83 1018.43 1018.11 1017.83 1017.59 1017.15 1016.71 1016.35 1015.95 1015.67 1015.43 1015.11 1014.67 1014.39 1014.03 1013.83 1013.51 1012.91 1012.31 1011.75 1011.07 1010.31 1009.47 1008.83 1008.35 1008.03 1007.67 1007.39 1007.11 1006.87 1006.75 1006.63 1006.51 1006.59 1006.87 1006.83
1024.35 1024.35 1024.27 1024.19 1024.19 1024.11 1024.07 1023.91 1023.79 1023.71 1023.59 1023.39 1023.23 1023.07 1022.87 1022.79 1022.75 1022.67 1022.47 1022.31 1022.23 1022.03 1021.91 1021.87 1021.87 1021.83 1021.67 1021.47 1021.31 1021.11 1020.91 1020.71 1020.55 1020.47 1020.19 1019.83 1019.55 1019.23 1018.83 1018.43 1018.15 1017.79 1017.39 1016.95 1016.51 1016.11 1015.75 1015.51 1015.31 1015.11 1014.79 1014.39 1013.95 1013.67 1013.27 1012.87 1012.35 1011.75 1011.23 1010.63 1009.99 1009.51 1008.91 1007.99 1007.19 1006.59 1006.15 1005.95 1005.83 1005.75 1005.59 1005.39 1005.15 1004.75
1024.63 1024.59 1024.55 1024.47 1024.39 1024.27 1024.15 1024.07 1023.99 1023.87 1023.83 1023.71 1023.43 1023.19 1023.03 1022.91 1022.79 1022.71 1022.63 1022.47 1022.15 1021.95 1021.95 1021.99 1022.11 1022.11 1021.99 1021.79 1021.71 1021.51 1021.23 1021.15 1020.91 1020.35 1020.03 1019.67 1019.31 1019.03 1018.75 1018.47 1018.11 1017.71 1017.31 1016.95 1016.63 1016.11 1015.71 1015.35 1015.07 1014.95 1014.67 1014.19 1013.83 1013.51 1013.11 1012.83 1012.39 1011.83 1011.27 1010.83 1010.23 1009.51 1008.75 1008.07 1007.67 1007.23 1006.79 1006.15 1005.43 1005.23 1005.03 1004.91 1004.79 1004.63
Wind_Speed
4 3 2 3 3 3 2 4 4 2 3 4 3 3 3 3 5 5 5 4 4 8 7 6 2 2 4 6 5 5 6 3 3 8 7 6 7 6 7 7 8 9 8 8 8 8 8 9 9 9 9 10 10 10 10 10 9 9 9 10 11 12 11 9 8 8 7 7 7 7 6 6 5 4
3 3 3 2 3 2 3 5 4 3 2 4 4 3 3 2 4 4 6 6 6 6 6 7 6 5 5 6 5 5 6 9 3 7 8 8 7 7 10 10 10 9 8 8 8 8 8 7 8 9 9 10 10 9 9 9 8 8 9 10 11 11 11 10 8 9 8 7 7 7 6 6 5 3
3 3 4 3 4 3 5 5 5 3 3 4 4 4 3 4 4 5 5 7 4 6 7 7 6 7 6 6 6 6 6 3 1 7 7 8 6 9 12 14 10 9 8 7 8 8 8 8 8 9 9 9 9 9 9 9 8 7 8 9 10 10 10 10 9 9 9 8 8 8 7 6 5 4
2 3 4 3 4 3 3 4 4 4 5 5 5 5 4 4 4 4 5 6 7 6 8 8 7 8 7 7 6 7 7 1 9 4 7 8 6 9 8 7 12 10 8 7 7 8 8 9 9 9 9 9 9 9 8 9 8 6 7 7 8 9 9 10 10 8 9 9 9 8 8 7 6 4
4 4 4 4 4 4 5 4 5 5 5 5 5 5 5 5 4 4 4 7 7 6 6 7 7 7 8 7 6 8 8 8 7 9 8 8 9 8 7 6 9 10 6 7 7 8 9 9 9 9 9 9 9 9 8 9 8 7 6 6 7 8 8 9 9 8 9 10 10 9 9 8 7 6
4 3 4 4 5 5 5 4 5 6 5 4 5 4 4 4 4 4 5 5 7 8 6 6 7 7 5 7 6 7 8 8 8 8 8 8 8 6 7 7 4 11 3 5 7 9 9 10 10 10 10 10 10 10 10 9 9 8 6 5 7 7 8 9 9 9 10 9 10 10 10 9 8 7
4 5 5 5 5 4 4 4 5 5 4 5 5 5 5 5 6 5 4 5 7 8 7 7 8 6 6 7 7 7 6 6 7 7 8 8 7 7 7 6 8 9 3 5 8 10 10 10 10 9 9 10 10 10 10 10 9 8 6 6 6 7 8 9 9 9 10 10 11 11 10 10 9 8
5 5 5 5 4 3 3 4 4 4 4 3 4 4 5 5 6 5 5 5 6 7 8 7 7 7 7 6 6 6 5 7 7 7 8 8 8 8 7 8 8 5 7 8 11 11 10 10 10 9 10 10 10 11 11 11 10 9 7 6 7 8 8 9 9 9 10 10 11 11 10 10 10 9
5 5 5 4 4 4 4 4 5 3 3 3 4 4 3 4 4 4 5 5 6 7 8 7 6 7 7 6 5 6 7 6 6 7 7 7 8 7 8 9 7 9 12 12 12 11 11 12 11 11 10 10 10 11 11 12 10 10 9 6 7 7 8 9 9 9 9 10 11 11 10 10 9 9
6 6 5 5 4 4 5 4 3 3 4 4 5 4 4 4 4 5 5 5 6 7 7 7 8 6 7 6 5 6 6 7 7 7 7 7 6 6 7 8 8 9 8 7 5 8 11 11 12 12 11 11 11 11 11 11 11 10 10 8 6 7 8 8 9 9 9 10 10 11 11 11 10 9
6 6 6 5 5 5 5 5 4 4 4 4 4 4 5 5 5 6 6 5 6 7 7 7 7 7 6 6 7 5 5 6 6 7 7 8 7 6 6 7 7 8 9 8 10 10 9 11 11 8 10 12 13 12 12 11 11 11 10 9 7 7 8 8 9 9 9 10 10 11 11 11 11 10
6 6 6 7 6 6 5 5 4 5 4 4 5 4 4 4 5 6 6 6 6 6 7 7 7 7 7 6 6 6 5 6 6 7 8 8 8 8 7 8 9 8 8 9 9 5 9 11 13 15 14 15 14 14 12 14 14 12 10 9 7 7 8 8 9 9 9 9 10 11 12 12 11 11
6 6 6 6 7 4 3 3 4 6 5 5 5 5 5 5 6 6 6 6 6 6 7 7 7 7 7 7 7 6 6 7 8 7 7 8 8 9 9 8 8 8 9 9 9 9 9 11 11 10 10 7 9 13 16 11 13 11 9 8 8 7 7 8 9 9 9 10 10 11 12 12 12 11
7 7 7 6 2 2 6 7 8 8 8 7 8 6 5 6 6 6 7 7 6 7 7 8 8 8 8 8 7 8 8 8 8 8 7 9 9 9 10 9 7 7 9 10 10 10 10 11 12 11 10 10 9 9 6 5 3 4 7 8 8 8 7 7 9 9 10 10 10 11 11 12 12 12
7 7 7 7 7 9 10 10 11 9 9 9 10 10 10 9 8 8 8 7 7 7 8 8 8 9 9 9 9 9 10 9 9 8 7 8 9 9 10 11 8 6 8 8 11 11 10 10 11 10 11 11 11 10 8 9 8 8 8 8 9 9 8 7 8 9 10 10 11 11 11 12 12 12
6 6 6 6 6 6 4 3 7 10 12 11 11 11 11 11 12 11 8 8 7 7 8 8 9 9 9 9 8 10 10 9 9 8 8 9 9 10 10 10 10 8 8 10 11 12 10 10 11 11 11 11 11 11 6 6 8 8 9 9 9 9 9 8 8 9 10 10 11 11 11 12 12 13
5 5 5 6 5 5 6 4 6 5 6 11 12 12 12 12 13 13 14 13 11 9 9 9 9 9 9 9 9 9 9 9 10 9 10 9 10 10 11 11 12 10 9 11 12 13 11 10 11 11 10 11 11 11 8 8 8 9 9 10 10 9 9 9 9 9 9 10 11 11 12 12 12 13
6 5 5 5 5 5 3 3 4 4 5 5 5 7 8 9 12 15 16 16 17 14 10 9 9 9 9 10 9 9 9 9 9 9 10 11 11 11 12 12 12 12 10 11 12 12 11 10 11 11 11 11 11 10 9 7 10 11 10 10 9 9 9 9 9 9 10 10 11 12 12 12 13 13
5 4 5 5 6 4 4 3 5 3 4 5 6 7 8 8 9 9 9 10 10 9 10 9 10 9 9 9 10 8 7 7 7 8 10 11 11 11 12 12 12 12 10 11 10 12 11 10 10 11 11 12 11 10 11 7 12 11 11 10 10 9 9 9 9 10 10 10 11 12 12 13 13 13
3 4 4 4 5 4 2 11 12 8 6 6 7 8 8 9 9 9 9 6 7 10 10 9 10 9 9 9 9 9 8 8 9 9 9 10 10 11 11 13 12 11 9 8 9 11 11 9 11 11 11 11 11 10 10 9 8 12 11 10 10 10 10 9 9 10 10 10 11 12 12 13 13 13
3 2 2 4 5 4 9 10 12 13 11 6 6 6 7 8 9 9 8 10 15 13 11 11 12 13 14 15 15 14 14 11 8 7 8 10 10 11 12 12 11 11 9 8 9 12 13 10 10 11 11 10 11 11 10 9 7 11 11 12 12 11 10 10 10 10 10 11 11 12 12 13 12 11
1 7 13 9 8 8 7 10 11 12 10 7 8 8 8 8 9 9 9 8 3 11 11 12 14 15 15 15 16 16 16 14 8 8 9 11 11 12 12 12 10 11 10 9 5 5 9 12 10 11 11 11 10 10 9 8 6 8 11 14 13 12 12 12 12 11 12 12 12 13 12 11 9 6
2 5 11 16 12 8 8 9 8 9 9 8 8 8 8 8 8 7 9 7 9 8 8 7 7 9 11 11 10 11 16 17 13 11 11 10 10 11 11 10 11 11 9 7 1 4 8 10 10 10 11 11 10 8 8 8 9 10 9 8 7 14 15 13 13 13 13 13 12 13 12 11 10 7
1 4 5 9 12 10 9 7 7 6 5 5 7 8 8 8 7 8 9 9 9 10 10 11 10 12 11 12 13 11 10 9 11 12 11 10 9 9 9 7 8 10 10 7 7 6 8 9 9 8 11 11 11 9 9 9 10 10 11 10 12 7 12 13 10 15 14 13 14 12 12 13 13 7
2 1 2 6 13 13 10 8 7 6 7 6 6 7 7 7 7 8 8 10 11 10 10 11 10 9 10 10 9 10 8 7 9 9 9 9 9 11 10 7 6 8 9 6 3 5 6 9 11 11 9 8 10 12 10 10 9 10 9 10 11 10 8 7 7 6 12 16 14 14 12 13 16 11
3 3 3 7 10 11 9 8 6 7 6 6 5 6 7 10 9 6 7 8 8 9 9 9 8 8 9 9 10 12 11 9 7 9 11 9 9 6 11 7 7 8 10 7 7 7 9 11 8 10 10 9 11 10 12 11 10 9 10 10 10 10 9 10 8 9 8 5 7 10 11 16 15 18
4 4 5 6 10 9 9 6 4 5 8 2 5 7 9 9 8 7 6 6 8 8 8 8 9 9 8 7 6 6 7 8 6 8 9 10 10 10 12 11 9 10 12 11 9 8 9 11 10 10 11 12 12 11 10 11 10 9 11 11 11 10 9 9 9 10 10 8 8 11 13 12 15 15
5 5 5 6 8 8 9 7 3 8 8 6 7 9 10 8 6 4 7 7 7 7 8 8 9 9 10 10 9 11 11 11 11 11 12 12 11 9 10 10 8 8 10 12 11 9 9 10 11 10 11 11 12 12 12 10 10 10 11 10 10 11 11 10 10 10 10 10 11 4 6 6 8 8
5 4 5 6 8 6 8 8 7 4 5 5 6 8 10 6 6 6 6 7 7 6 7 7 7 8 8 8 9 10 11 11 11 11 10 11 11 12 12 11 10 11 10 9 9 9 6 8 9 11 12 10 10 12 12 12 12 11 10 11 11 9 9 10 11 11 11 10 10 10 10 9 6 8
4 3 7 5 7 3 4 3 4 4 4 4 5 2 6 5 5 5 6 6 6 6 7 7 7 7 7 8 9 10 10 10 11 11 11 11 11 11 11 11 11 11 11 10 10 8 6 5 7 10 12 11 11 13 12 13 12 12 11 11 11 11 10 9 9 10 11 10 10 10 10 9 10 6
2 3 5 4 6 6 7 7 6 1 2 3 4 5 5 5 5 5 5 5 5 5 6 6 7 7 7 8 8 7 8 8 8 9 9 9 11 12 12 12 13 12 11 11 10 10 10 11 10 7 10 12 10 11 12 11 13 12 11 11 10 11 10 10 10 11 10 11 11 11 11 10 9 9
4 4 3 4 2 2 2 1 2 3 4 4 5 5 6 5 5 4 1 1 3 3 4 4 5 6 6 7 8 8 7 7 8 8 8 8 9 9 9 10 11 12 12 13 12 8 6 8 11 11 10 8 12 13 12 12 12 12 12 11 11 11 11 11 11 10 9 10 11 11 10 10 10 10
3 2 2 3 3 3 4 4 4 5 5 5 4 5 6 5 5 5 6 6 6 6 6 6 6 7 7 7 7 8 7 7 8 8 9 9 9 9 8 9 9 9 10 11 11 11 8 5 5 8 11 13 11 13 13 13 12 12 12 12 11 11 11 10 10 11 10 10 11 12 11 10 10 11
4 3 3 4 5 5 5 5 5 6 6 6 5 5 5 5 6 6 5 6 6 6 6 6 7 7 7 7 7 7 7 8 8 8 9 8 8 9 9 9 9 8 8 9 10 10 10 9 7 6 8 10 12 12 11 11 12 12 12 11 11 11 10 10 10 10 10 10 11 12 12 12 11 10
3 4 4 4 4 5 4 5 5 5 5 6 6 6 5 5 5 6 5 7 6 6 6 6 6 7 7 7 7 7 7 8 8 8 7 7 8 8 9 9 10 10 10 10 10 10 10 10 10 11 10 10 10 9 8 10 11 12 12 10 9 10 11 10 10 9 9 9 9 11 12 12 12 10
4 4 4 4 5 5 5 5 5 5 5 5 5 5 5 5 5 6 6 7 7 6 6 7 7 6 7 7 7 8 7 8 8 8 8 7 8 8 8 8 9 10 10 10 10 10 10 10 10 11 12 11 11 12 9 7 9 9 11 12 11 11 11 11 10 10 11 10 10 10 13 13 12 11
4 4 4 4 5 5 5 5 5 5 5 5 5 5 5 5 5 5 6 6 5 6 6 7 6 6 7 7 8 8 7 8 8 8 8 8 8 8 8 9 9 9 10 9 10 10 10 10 10 10 11 11 11 11 12 9 7 5 7 11 11 11 12 13 13 14 13 13 12 11 11 13 14 12
4 4 5 4 5 5 4 5 5 5 5 5 5 5 5 5 5 6 6 5 6 6 7 6 7 6 7 7 8 8 8 8 7 8 8 8 8 8 9 10 10 10 10 10 10 10 9 9 9 9 9 10 11 12 13 11 11 9 4 8 13 13 13 13 14 13 13 13 13 12 11 13 14 12
4 4 5 5 5 5 5 5 5 5 6 5 5 5 6 6 6 6 6 6 7 7 7 7 6 7 7 7 7 8 8 8 8 8 8 8 9 9 10 10 10 10 11 11 10 9 9 9 9 9 8 9 10 11 12 14 15 14 13 12 13 14 13 12 13 13 13 14 13 13 13 13 15 16
4 4 4 5 5 5 5 5 5 6 6 6 6 6 6 6 6 6 6 6 7 7 7 7 7 7 7 7 7 8 8 8 9 9 9 9 9 10 9 10 11 11 11 11 11 10 9 9 8 9 11 11 12 13 14 14 15 16 15 15 20 17 13 12 13 13 13 12 12 13 14 14 14 13
5 5 4 5 5 5 6 5 6 6 6 6 6 6 6 6 7 6 7 7 7 7 7 7 7 7 7 7 7 7 8 8 8 9 9 10 10 10 12 12 10 10 10 12 12 11 10 9 12 15 15 13 12 12 12 12 13 12 12 12 12 9 13 13 12 13 15 13 13 13 14 13 13 13
5 5 5 5 5 5 6 6 6 7 7 6 7 7 7 7 6 7 8 7 6 7 7 6 7 7 7 7 8 8 9 9 10 9 9 10 11 11 11 10 10 10 10 11 12 12 12 12 13 12 11 11 11 11 12 12 13 13 12 13 13 15 16 14 17 16 14 13 14 14 13 13 11 13
4 4 5 5 5 6 6 6 6 6 6 6 6 7 7 7 6 7 7 7 7 7 7 7 7 7 8 8 8 8 9 9 9 10 11 11 11 11 11 10 10 11 11 12 12 12 12 12 11 12 11 10 10 10 12 13 13 14 14 14 14 13 13 17 17 18 19 21 20 17 15 14 13 14
5 5 5 5 6 6 6 7 7 7 7 7 7 7 7 7 7 7 7 7 8 8 8 8 8 8 9 9 8 8 9 9 10 11 11 11 11 11 11 12 12 12 12 11 12 12 12 12 11 11 12 12 11 11 13 14 14 13 14 14 14 15 15 14 14 14 15 18 21 23 23 23 21 22
6 6 7 7 7 7 7 7 7 7 8 8 8 8 8 8 8 8 8 9 9 9 9 9 9 9 9 9 9 10 10 10 11 10 10 11 10 11 11 12 12 12 12 12 12 13 12 12 12 11 11 12 11 12 13 13 14 14 15 15 16 15 14 13 13 14 14 14 12 15 19 21 22 22
Wind_Direction
280 268 271 296 303 293 296 285 298 2 315 312 335 313 315 349 306 307 310 314 302 306 320 313 27 56 321 312 305 296 292 58 4 315 312 317 298 78 340 302 291 285 284 291 293 295 295 298 291 293 292 294 293 290 286 283 274 265 259 252 253 253 253 243 225 229 237 233 227 232 250 275 293 320
249 259 264 256 269 258 251 241 245 264 284 286 288 298 304 292 297 314 306 308 298 306 301 306 318 352 319 303 309 303 310 117 275 321 309 307 315 13 297 276 264 263 275 287 292 293 296 294 290 295 297 296 295 288 283 283 276 262 256 256 258 254 251 245 229 230 234 235 230 228 242 264 282 296
248 259 263 261 265 288 294 312 278 280 271 268 272 280 280 286 300 301 302 294 305 308 306 305 320 314 311 320 318 319 323 131 8 316 313 300 345 297 277 256 234 240 259 278 284 292 293 292 293 295 296 295 296 288 280 286 281 270 260 257 258 258 253 245 233 227 230 234 232 228 235 247 261 278
255 246 247 248 262 272 281 276 288 260 244 265 278 281 295 286 276 291 291 293 297 301 303 314 310 303 322 313 310 326 302 91 179 305 302 304 281 269 292 216 213 221 238 265 284 290 293 289 292 296 296 295 292 286 275 281 285 272 260 258 257 257 256 248 238 222 225 231 235 231 229 237 243 256
248 248 259 262 259 265 264 267 276 280 262 246 245 249 252 265 276 280 293 293 299 301 312 305 306 324 320 313 322 304 315 311 320 317 303 309 298 297 300 306 189 197 212 265 283 291 292 294 295 294 293 291 289 287 280 287 286 282 271 263 261 261 260 256 244 223 216 226 233 232 228 227 234 237
244 227 243 253 255 236 248 265 267 264 278 277 272 269 266 278 279 282 287 291 294 299 306 311 315 300 306 305 322 318 310 317 315 313 312 299 303 308 314 308 306 163 171 257 280 288 289 292 293 290 290 287 289 288 289 290 289 289 283 267 258 257 256 256 248 234 223 220 227 231 227 225 225 228
227 229 233 238 235 232 228 232 251 272 286 288 296 295 297 297 290 285 288 287 289 298 302 306 302 313 320 310 311 305 302 307 299 303 302 314 317 315 310 305 310 143 185 222 266 273 280 283 280 282 279 282 286 288 288 287 287 285 277 260 250 249 251 247 245 232 226 222 224 228 226 224 220 221
227 231 231 242 245 253 243 247 263 266 264 272 265 267 265 262 273 285 273 263 278 291 296 299 305 310 312 304 301 300 302 300 315 309 312 301 303 314 308 305 298 151 181 228 249 262 269 265 268 265 269 277 281 285 287 288 289 286 278 261 248 246 244 243 240 236 228 222 222 224 228 223 220 221
245 246 248 237 236 227 238 237 240 240 241 252 264 264 261 267 273 279 285 282 276 281 286 294 294 299 289 288 291 305 309 308 300 302 299 308 307 310 311 305 316 300 212 222 238 251 247 250 249 252 260 268 273 279 286 289 289 287 284 269 250 246 243 242 237 234 228 223 220 220 221 223 220 217
231 233 232 238 241 242 245 254 261 267 265 261 261 270 278 285 287 279 273 269 270 276 281 286 290 280 291 298 299 301 300 303 312 309 308 305 316 314 313 322 317 319 329 334 297 236 233 233 231 244 246 251 263 270 275 281 281 279 278 273 254 241 244 244 242 233 225 220 219 217 218 220 220 216
230 229 227 224 232 234 241 251 252 244 245 253 264 259 267 268 266 270 273 273 274 276 280 279 277 283 285 296 300 304 297 294 289 299 310 305 311 318 318 309 311 313 318 305 248 251 285 294 280 255 230 239 251 261 260 260 260 265 263 267 255 238 234 238 241 240 230 220 215 215 215 216 216 214
237 229 229 231 222 227 228 234 237 241 247 254 258 259 272 280 279 282 286 290 289 283 282 284 293 299 295 287 288 295 291 291 294 303 314 312 312 308 306 304 310 313 302 298 310 252 235 253 243 241 244 243 243 244 247 242 248 243 251 249 251 242 232 231 233 235 234 228 218 213 213 214 217 218
235 236 237 231 232 207 211 242 278 297 315 293 279 276 270 270 279 282 286 285 285 283 280 286 287 283 288 291 288 295 302 300 307 309 304 303 303 308 309 306 300 297 301 305 312 317 317 303 305 313 309 287 223 229 225 238 215 227 235 242 254 250 241 231 227 227 229 229 225 217 213 213 215 219
242 238 244 238 172 140 217 225 219 231 241 245 272 287 285 284 283 285 282 279 277 284 288 284 289 292 292 294 304 304 300 297 295 307 314 306 311 311 307 303 300 309 302 303 304 305 307 307 304 300 295 297 280 295 261 294 19 185 226 256 260 259 248 233 224 223 224 226 225 221 217 213 214 216
250 250 245 251 204 195 204 215 216 223 223 229 236 249 263 275 282 284 281 277 282 285 285 286 281 285 293 299 305 301 298 304 320 314 309 305 306 305 306 305 305 284 305 296 297 298 305 303 296 295 294 294 298 294 283 137 186 218 243 247 254 263 260 242 227 220 221 222 223 221 218 215 213 214
252 255 255 252 251 235 233 273 199 205 213 218 223 230 238 242 244 245 255 271 276 275 280 283 288 293 292 297 297 298 307 313 309 307 301 295 293 297 296 296 297 307 299 299 297 292 296 297 294 292 288 291 291 295 301 215 223 233 243 246 249 254 259 254 236 224 218 218 218 217 216 213 213 212
258 267 272 275 281 283 122 218 248 250 220 202 212 223 227 233 233 230 228 236 248 265 263 271 277 276 287 288 289 298 304 306 293 294 292 293 293 292 291 289 295 298 306 297 293 295 300 297 293 289 290 298 301 298 270 226 218 216 234 251 253 249 250 252 245 228 220 217 215 216 215 215 213 213
247 247 262 263 259 275 284 271 262 255 255 272 243 231 232 238 222 217 222 223 226 234 250 261 267 268 267 275 286 292 293 290 292 293 293 299 294 292 288 291 286 286 291 285 294 292 290 295 302 298 299 300 292 282 282 212 201 209 231 249 253 247 246 249 244 232 221 215 214 213 212 212 213 216
271 273 264 267 267 264 262 5 14 304 305 286 275 271 274 268 275 266 245 228 218 211 226 239 247 257 257 263 272 276 282 292 299 297 297 297 292 287 283 279 277 279 272 269 273 284 291 296 294 295 304 306 302 299 302 234 212 216 226 241 247 242 242 243 240 235 225 219 216 214 213 211 213 213
252 256 269 279 286 278 23 30 12 5 317 285 269 269 265 269 268 263 251 243 281 283 280 274 276 285 315 334 305 298 294 291 280 281 277 273 274 277 281 283 292 285 288 286 281 283 290 297 296 300 304 304 297 300 296 302 236 223 221 232 243 245 240 235 236 234 230 228 223 218 213 212 212 213
234 258 10 330 311 21 51 18 15 0 329 276 276 273 280 283 283 281 283 194 206 217 225 251 274 281 277 275 276 273 267 254 270 284 276 265 269 277 280 282 284 289 297 297 309 300 296 301 299 300 301 301 300 295 292 288 265 207 215 223 236 245 238 231 229 228 227 226 228 226 219 213 211 209
313 61 52 36 41 50 38 18 10 355 332 295 282 282 283 288 283 289 292 296 234 203 225 235 241 245 253 253 252 254 256 253 232 238 250 270 281 279 281 283 287 293 294 292 311 301 289 301 302 301 303 299 289 296 303 312 320 176 210 219 232 235 232 231 225 227 227 225 221 221 222 216 201 193
324 100 66 57 44 38 27 17 7 349 340 310 303 297 287 283 287 298 335 326 319 309 297 279 273 268 244 243 246 245 230 234 220 227 248 275 275 277 280 293 298 287 283 288 189 279 295 299 303 309 307 303 302 302 308 312 304 302 304 292 244 220 228 227 226 221 227 229 227 223 210 197 190 222
237 101 107 71 47 37 27 10 356 339 324 320 311 313 294 289 299 339 320 309 314 308 299 290 288 290 293 291 286 284 274 236 212 221 244 263 273 277 277 282 280 292 295 310 6 303 293 291 292 305 297 302 305 309 307 302 306 313 309 298 295 252 202 225 232 226 226 220 224 222 214 194 194 227
22 33 79 78 29 13 8 360 342 326 314 296 304 297 316 342 332 304 304 314 312 290 288 292 293 295 293 289 288 289 288 311 314 294 254 267 282 292 282 260 278 276 284 305 33 320 299 296 294 296 291 291 290 297 306 307 303 303 299 297 294 293 298 271 273 269 203 218 217 215 210 206 207 227
22 357 321 29 16 358 353 350 343 320 305 288 284 356 343 312 314 307 297 292 290 298 301 299 305 305 295 308 325 315 318 326 346 319 313 320 303 293 290 311 288 288 291 307 315 309 300 286 286 292 291 289 290 293 301 302 303 298 300 303 301 300 294 291 281 279 284 215 203 206 210 204 212 226
13 15 6 31 7 350 358 12 18 13 349 247 22 322 299 280 279 272 267 301 307 310 312 314 312 309 309 323 303 290 313 315 314 309 310 307 301 294 294 304 313 307 300 297 289 282 281 286 288 282 286 289 291 292 287 293 299 309 302 300 301 298 296 294 289 291 288 286 292 182 201 198 214 223
33 13 19 1 336 350 1 1 103 58 33 14 342 350 335 300 243 304 351 11 358 349 340 338 342 344 349 342 338 335 330 322 322 320 312 312 312 307 304 301 285 265 274 281 283 277 283 290 285 285 278 284 288 289 293 291 288 293 297 299 299 298 299 296 298 295 290 288 281 231 190 202 205 210
36 359 313 319 343 338 347 318 267 158 56 347 332 351 327 320 13 6 7 2 355 354 350 346 345 348 345 336 331 330 325 323 321 320 322 322 320 316 311 306 302 297 293 291 292 290 278 271 279 286 286 283 283 287 288 289 293 293 296 301 290 290 297 297 292 293 295 291 291 289 286 283 245 189
264 0 325 330 336 332 347 317 20 5 2 294 278 297 326 359 22 8 0 356 357 352 341 340 338 333 328 331 333 331 336 339 339 339 337 332 325 326 324 318 310 303 295 291 287 283 273 262 270 279 281 284 288 289 291 294 292 292 292 286 291 291 281 283 286 291 289 288 285 279 274 269 279 250
327 351 339 354 299 280 273 256 235 355 326 329 1 4 3 7 20 10 3 356 354 350 340 330 327 325 326 327 327 337 337 329 329 342 341 335 333 335 336 328 319 319 316 308 303 311 311 305 297 310 296 293 294 291 294 292 290 292 289 289 290 289 298 293 286 283 284 284 283 281 279 278 270 263
330 333 309 246 276 289 262 237 356 30 21 17 9 18 2 14 33 7 4 358 5 358 332 316 319 311 313 316 325 323 319 326 331 337 335 333 321 322 322 318 319 320 320 325 326 332 313 306 308 304 296 305 295 296 292 290 290 288 290 292 290 289 289 290 289 287 286 286 284 281 280 278 275 276
302 332 333 9 8 356 7 4 7 10 9 21 7 28 9 355 19 4 11 7 360 352 338 340 331 324 325 323 319 320 325 335 330 327 325 321 316 315 312 309 311 316 318 316 318 323 320 293 286 295 294 290 272 273 289 293 289 290 291 290 291 290 294 295 296 294 296 293 285 286 284 278 278 273
316 1 4 15 20 7 17 10 9 3 4 4 358 13 13 355 25 356 12 13 357 346 340 339 332 334 329 327 337 341 336 328 324 323 320 317 320 314 315 315 312 315 314 310 314 318 321 321 311 272 264 263 271 273 271 278 287 294 294 297 295 294 296 299 298 301 298 293 295 292 289 285 281 277
10 8 15 19 20 9 13 17 9 360 1 5 354 354 355 4 9 0 10 10 344 340 339 340 336 334 337 335 338 334 330 327 321 322 329 323 321 320 320 315 320 322 321 319 319 325 326 321 316 311 305 300 297 289 260 251 284 287 297 294 300 298 298 304 305 306 301 292 288 288 287 285 281 281
19 13 13 17 17 7 7 13 5 360 359 1 354 350 349 351 3 357 8 353 334 340 343 341 332 338 337 335 334 327 326 324 319 326 326 325 326 323 319 317 317 317 318 316 320 324 324 315 315 315 314 312 310 307 308 219 239 294 305 306 306 305 305 301 299 292 289 289 286 283 285 285 288 290
12 14 11 12 12 6 5 1 2 356 359 354 349 349 344 343 356 359 356 329 333 340 344 326 330 337 334 336 327 320 324 324 324 324 319 322 322 320 318 317 315 313 312 315 319 315 315 313 315 313 313 311 310 309 300 316 317 298 285 301 303 303 306 307 307 301 294 291 286 280 284 289 287 287
14 6 10 4 8 357 360 358 354 352 355 348 344 342 346 346 350 350 337 331 348 336 336 331 335 335 338 332 326 327 322 319 318 315 319 320 324 324 324 319 316 317 314 311 311 309 309 310 313 314 314 316 314 307 308 317 312 299 280 300 296 296 296 293 292 289 293 292 289 286 278 278 280 284
14 359 0 359 0 356 352 357 344 350 345 344 343 344 345 339 345 339 338 345 345 337 329 327 331 337 325 325 327 320 320 323 320 320 320 324 324 323 320 318 317 316 312 306 307 307 312 312 315 323 334 327 313 308 312 306 300 300 295 276 279 283 278 284 289 292 294 297 297 298 294 288 283 276
7 349 360 352 351 351 346 345 344 345 338 341 342 341 338 335 339 330 334 342 337 330 319 317 325 322 319 324 322 320 317 317 316 315 319 318 320 316 314 319 314 306 302 303 307 311 311 311 319 337 329 310 297 292 289 285 282 282 281 271 240 236 268 288 290 294 294 293 298 298 298 298 295 298
356 342 350 348 337 342 338 337 336 336 334 333 327 331 331 336 320 331 342 327 317 312 315 318 320 322 321 322 318 318 315 312 311 311 314 313 312 312 312 308 298 304 308 308 309 307 309 320 323 313 294 289 288 289 283 279 282 288 294 298 315 280 240 249 272 283 285 290 291 290 289 291 297 297
337 335 335 330 334 331 328 330 331 329 329 332 330 332 331 321 320 326 308 296 307 315 310 314 323 318 320 320 320 319 317 317 315 314 315 314 312 310 306 306 306 309 309 305 305 304 306 308 307 306 302 301 298 295 290 291 292 294 296 304 297 288 276 251 243 251 262 281 290 286 284 287 288 286
331 327 322 327 324 325 322 322 320 319 321 322 320 323 314 312 315 316 316 319 312 311 318 321 322 320 317 318 318 317 312 310 313 314 314 311 309 308 307 304 306 306 303 300 299 300 303 306 307 302 299 298 294 291 288 292 295 294 296 295 298 308 305 300 282 258 248 246 242 246 262 273 285 281
327 324 322 326 319 317 316 315 318 318 316 316 317 311 311 315 315 312 309 308 312 313 318 320 319 317 316 316 316 313 311 313 316 311 306 305 304 302 302 303 301 300 298 298 301 302 303 303 302 303 301 297 297 293 291 294 291 295 297 297 298 298 297 299 295 279 255 239 243 245 244 243 245 256
320 318 319 318 316 313 313 315 313 313 313 311 309 312 311 309 309 309 308 305 303 307 309 311 315 315 314 316 317 313 313 310 301 296 299 299 301 302 302 302 300 299 300 302 301 301 303 303 302 300 293 293 296 295 293 288 291 294 293 293 294 295 295 301 304 304 302 300 278 255 245 245 248 250